Location: Hilde
(52.9479°N, 6.4449°E)
Time: 05:18:25
(UTC+00:00)

CZ-4C R/B - Pass Details

Date: 15 May 2026
Orbit: 474 x 1503 km, 63.4° (Epoch: 6 June)

Event Time Altitude Azimuth Distance (km) Brightness Sun altitude
Rises 22:42:45 0° 292° (WNW) 3,141 5.7 -17.3°
Reaches altitude 10° 22:45:09 10° 303° (WNW) 2,362 5.1 -17.3°
Maximum altitude 22:50:04 31° 6° (N) 1,579 4.3 -17.5°
Drops below altitude 10° 22:56:15 10° 67° (ENE) 3,013 5.2 -17.6°
Sets 22:59:42 0° 77° (ENE) 4,151 5.9 -17.7°
